AirNav  
 
 783 users online  

8D4 Paul C Miller-Sparta Airport
Sparta, Michigan, USA

GOING TO SPARTA?


FAA INFORMATION EFFECTIVE 09 NOVEMBER 2017

Location

FAA Identifier: 8D4
Lat/Long: 43-07-38.7752N / 085-40-44.8665W
43-07.646253N / 085-40.747775W
43.1274376 / -85.6791296
(estimated)
Elevation: 774.8 ft. / 236.2 m (surveyed)
Variation: 04W (1980)
From city: 3 miles SE of SPARTA, MI
Time zone: UTC -5 (UTC -4 during Daylight Saving Time)
Zip code: 49345

Airport Operations

Airport use: Open to the public
Activation date: 12/1944
Control tower: no
ARTCC: CHICAGO CENTER
FSS: LANSING FLIGHT SERVICE STATION
NOTAMs facility: LAN (NOTAM-D service available)
Attendance: IREG
Wind indicator: lighted
Segmented circle: yes
Lights: ACTVT MIRL RY 07/25, PAPI RY 07 & RY 25, REIL RY 07 & RY 25 - CTAF.
Beacon: white-green (lighted land airport)
Operates sunset to sunrise.

Airport Communications

CTAF/UNICOM: 122.8
WX AWOS-A: 132.95 (616-887-2039)
GRAND RAPIDS APPROACH: 124.6 [0600-2300]
GRAND RAPIDS DEPARTURE: 124.6 [0600-2300]
WX ASOS at GRR (16 nm SE): 118.725 (616-575-1953)
  • APCH/DEP SERVICE PROVIDED BY CHICAGO ARTCC ON FREQS 128.5/273.525 (PULLMAN RCAG) WHEN GRAND RAPIDS APCH CTL CLSD.

Nearby radio navigation aids

VOR radial/distance  VOR name  Freq  Var
MKGr100/16.0MUSKEGON VORTAC115.2001W
VIOr343/22.0VICTORY VOR/DME115.9504W
HICr178/26.9WHITE CLOUD VOR/DME117.6001W

Airport Services

Fuel available: 100LL MOGAS
Parking: hangars and tiedowns
Airframe service: MAJOR
Powerplant service: MAJOR
Bottled oxygen: NONE
Bulk oxygen: NONE

Runway Information

Runway 7/25

Dimensions: 4032 x 75 ft. / 1229 x 23 m
Surface: asphalt, in good condition
Weight bearing capacity: 
Single wheel: 24.0
Runway edge lights: medium intensity
RUNWAY 7  RUNWAY 25
Latitude: 43-07.492800N43-07.799705N
Longitude: 085-41.149523W085-40.346025W
Elevation: 774.6 ft.744.9 ft.
Gradient: 0.3%0.7% UP
Traffic pattern: leftleft
Runway heading: 067 magnetic, 063 true247 magnetic, 243 true
Markings: nonprecision, in good conditionnonprecision, in good condition
Visual slope indicator: 2-light PAPI on left (3.50 degrees glide path)2-light PAPI on right (3.50 degrees glide path)
Runway end identifier lights: yesyes
Touchdown point: yes, no lightsyes, no lights

Airport Ownership and Management from official FAA records

Ownership: Publicly-owned
Owner: CITY OF SPARTA
156 EAST DIVISION
SPARTA, MI 49345
Phone (616) 887-8251
Manager: VIC JOHNSTON
9100 VINTON AVE.
SPARTA, MI 49345
Phone (616) 887-5744

Airport Operational Statistics

Aircraft based on the field: 81
Single engine airplanes: 77
Multi engine airplanes: 2
Jet airplanes: 2
    
Aircraft operations: avg 41/day *
60% local general aviation
40% transient general aviation
* for 12-month period ending 31 December 2014

Additional Remarks

DEER ON & INVOF ARPT.
POWERED PARACHUTE OPNS NORTH SIDE OF RY.

Instrument Procedures

NOTE: All procedures below are presented as PDF files. If you need a reader for these files, you should download the free Adobe Reader.

NOT FOR NAVIGATION. Please procure official charts for flight.
FAA instrument procedures published for use between 9 November 2017 at 0901Z and 7 December 2017 at 0900Z.

 
IAPs - Instrument Approach Procedures
RNAV (GPS) RWY 07   download (186KB)
RNAV (GPS) RWY 25   download (186KB)
VOR-A   download (175KB)
NOTE: Special Alternate Minimums apply   download (24KB)
NOTE: Special Take-Off Minimums/Departure Procedures apply   download (181KB)

Other nearby airports with instrument procedures:

KGRR - Gerald R Ford International Airport (16 nm SE)
6D6 - Greenville Municipal Airport (19 nm E)
KFFX - Fremont Municipal Airport (23 nm NW)
3GM - Grand Haven Memorial Airpark (23 nm W)
KMKG - Muskegon County Airport (24 nm W)
 
Loc | Ops | Rwys | IFR | FBO | Links
Com | Nav | Svcs | Stats | Notes


 
Area around 8D4 (Paul C Miller-Sparta Airport)
 
Road maps at: MapQuest Bing Google
 
Aerial photo
WARNING: Photo may not be current or correct
Aerial photo of 8D4 (Paul C Miller-Sparta Airport)
Photo by Tal Reichert
Photo taken 29-Jul-2012
looking northeast.

Do you have a better or more recent aerial photo of Paul C Miller-Sparta Airport that you would like to share? If so, please send us your photo.

 
Sectional chart

 
Airport distance calculator
Flying to Paul C Miller-Sparta Airport? Find the distance to fly.

From to 8D4

Sunrise and sunset
Times for 23-Nov-2017
 Local
(UTC-5)
 Zulu
(UTC)
Morning civil twilight07:1512:15
Sunrise07:4612:46
Sunset17:1222:12
Evening civil twilight17:4322:43

Current date and time
Zulu (UTC)  23-Nov-2017 15:31:49
Local (UTC-5)  23-Nov-2017 10:31:49
 
METAR
KGRR 
16nm SE 
231453Z 19011KT 10SM FEW046 OVC070 01/M04 A3003 RMK AO2 SLP176 T00111044 58006
KFFX 
23nm NW 
231510Z AUTO 21009KT 10SM OVC070 03/M03 A2997 RMK AO2 T00331034
KMKG 
24nm W 
231455Z 22014KT 10SM OVC065 05/M04 A3000 RMK AO2 SLP164 T00501044 56014
KBIV 
29nm SW 
231453Z AUTO 19011KT 10SM OVC075 02/M04 A3003 RMK AO2 SLP177 T00221039 56007
KY70 
29nm SE 
231513Z AUTO 20006KT 10SM OVC070 01/M05 A3002 RMK AO2 T00071055
TAF
KGRR 
16nm SE 
231139Z 2312/2412 21010KT P6SM OVC045 FM232000 21008KT P6SM SCT050
NOTAMs
Click for the latest NOTAMs
NOTAMs are issued by the DoD/FAA and will open in a separate window not controlled by AirNav.

 

 
 

FBO, Fuel Providers, and Aircraft Ground Support

  
 Business Name 
 
 Contact 
 
 Services / Description 
 
Fuel Prices
 
Comments
  
Village of Sparta (FBO) 616-887-5744
no information available

If you are affiliated with Village of Sparta (FBO) and would like to show here your services, contact info, web link, logo, and more, click here
100LL Mogas
SS $4.50 $3.50 
 Updated 03-Nov-2017
 
   write
SS=Self service
Update Fuel Prices
 

Would you like to see your business listed on this page?

 If your business provides an interesting product or service to pilots, flight crews, aircraft, or users of the Paul C Miller-Sparta Airport, you should consider listing it here.  To start the listing process, click on the button below
 
Add a business
 

Other Pages about Paul C Miller-Sparta Airport

Page from the Michigan Airport Directory (PDF)
 
Update a link
 
Copyright © AirNav, LLC. All rights reserved. Privacy Policy  Contact